Orbital Elements at Epoch 2459000.5 (2020-May-31.0) TDB
Reference: JPL 10 (heliocentric ecliptic J2000)
Element | Value | Uncertainty (1-sigma) | Units |
e | .1143900609324579 | 7.3743e-08 | |
a | 2.340260921845958 | 3.1354e-08 | au |
q | 2.072558332398148 | 1.6635e-07 | au |
i | 6.358546345926768 | 7.4774e-06 | deg |
node | 294.3823547194444 | 7.7134e-05 | deg |
peri | 359.8158748464011 | 8.7755e-05 | deg |
M | 170.9366476837759 | 4.9647e-05 | deg |
tp | 2458379.591607846896 (2018-Sep-18.09160785) | 0.00017215 | TDB |
period | 1307.660026120502 3.58 | 2.628e-05 7.195e-08 | d yr |
n | .2753009137000458 | 5.5326e-09 | deg/d |
Q | 2.607963511293767 | 3.4941e-08 | au |
|
| | Orbit Determination Parameters
Additional Information
|